sat.trackr.live / text

‹ back to catalog

STARLINK-5089

NORAD 56148 · 2023-046BJ

PAYLOAD ACTIVE UNKNOWN

§ Identity

Operator
Country
US
Launch date
2023-03-29
Launch site
AFETR
Launch vehicle
Mass (kg)
RCS (m²)

Purposes: comms

External: N2YO · Heavens-Above · Gunter

§ Orbital elements

Epoch: 2026-05-25T03:16:18.021216Z

Period
94.27 min
Inclination
43.0020°
Eccentricity
0.0000777
Mean motion
15.27576003 rev/d
Perigee alt
482.5 km
Apogee alt
483.6 km
Semi-major
6,861.2 km
B*
2.4337e-5
RAAN
38.5611°
Arg perigee
262.5626°
Mean anomaly
97.5138°
Rev number
17,431

§ Raw data

STARLINK-50891 56148U 23046BJ  26145.13631969  .00000408  00000+0  24337-4 0  99992 56148  43.0020  38.5611 0000777 262.5626  97.5138 15.27576003174314

JSON: /api/v1/satellites/56148 · /tle

For live sub-satellite position, see the globe view (requires WebGL).

§ Visibility from observer

Set your observer location to see the next 7 days of passes ≥ 10°. The values pass through the URL so the page stays shareable.

No JS? Fill the form by hand. The geolocation button needs JavaScript.